| time (UTC) | temp F | wind direction | speed MPH | gust MPH | rain 1hr in | rain 24hr in | rain mn in | humidity % | barometer mb |
| 20260505210905 | 84 | 137 | 10.0 | 21.0 | 0.00 | 0.00 | 0.00 | 40 | 1004.2 |
| 20260505203618 | 86 | 111 | 8.0 | 18.0 | 0.00 | 0.00 | 0.00 | 39 | 1004.3 |
| 20260505202555 | 85 | 105 | 10.0 | 23.0 | 0.00 | 0.00 | 0.00 | 39 | 1004.4 |
| 20260505201534 | 86 | 112 | 9.0 | 23.0 | 0.00 | 0.00 | 0.00 | 38 | 1004.5 |
| 20260505200530 | 86 | 98 | 9.0 | 22.0 | 0.00 | 0.00 | 0.00 | 38 | 1004.5 |
| 20260505195539 | 86 | 170 | 9.0 | 27.0 | 0.00 | 0.00 | 0.00 | 39 | 1004.5 |
| 20260505194512 | 86 | 110 | 10.0 | 27.0 | 0.00 | 0.00 | 0.00 | 39 | 1004.5 |
| 20260505193456 | 87 | 99 | 8.0 | 25.0 | 0.00 | 0.00 | 0.00 | 40 | 1004.7 |
| 20260505192436 | 87 | 106 | 8.0 | 25.0 | 0.00 | 0.00 | 0.00 | 39 | 1005.0 |
| 20260505191456 | 86 | 103 | 9.0 | 21.0 | 0.00 | 0.00 | 0.00 | 40 | 1005.1 |
| 20260505190446 | 86 | 80 | 10.0 | 25.0 | 0.00 | 0.00 | 0.00 | 39 | 1005.1 |
| 20260505185441 | 87 | 112 | 8.0 | 25.0 | 0.00 | 0.00 | 0.00 | 41 | 1005.2 |
| 20260505184413 | 87 | 101 | 8.0 | 24.0 | 0.00 | 0.00 | 0.00 | 41 | 1005.5 |
| 20260505183358 | 87 | 144 | 8.0 | 24.0 | 0.00 | 0.00 | 0.00 | 42 | 1005.7 |
| 20260505182407 | 87 | 171 | 8.0 | 21.0 | 0.00 | 0.00 | 0.00 | 43 | 1005.6 |
| 20260505181346 | 87 | 100 | 7.0 | 21.0 | 0.00 | 0.00 | 0.00 | 44 | 1005.6 |
| 20260505180402 | 87 | 99 | 9.0 | 21.0 | 0.00 | 0.00 | 0.00 | 43 | 1005.7 |
| 20260505173159 | 85 | 115 | 8.0 | 20.0 | 0.00 | 0.00 | 0.00 | 46 | 1006.1 |
| 20260505172209 | 86 | 105 | 6.0 | 20.0 | 0.00 | 0.00 | 0.00 | 46 | 1006.4 |
| 20260505171221 | 86 | 118 | 4.0 | 15.0 | 0.00 | 0.00 | 0.00 | 47 | 1006.5 |
| 20260505165123 | 84 | 105 | 6.0 | 15.0 | 0.00 | 0.00 | 0.00 | 49 | 1006.7 |
| 20260505164115 | 83 | 106 | 5.0 | 12.0 | 0.00 | 0.00 | 0.00 | 50 | 1006.8 |
| 20260505163115 | 83 | 119 | 4.0 | 12.0 | 0.00 | 0.00 | 0.00 | 50 | 1006.9 |
| 20260505162045 | 83 | 126 | 5.0 | 12.0 | 0.00 | 0.00 | 0.00 | 51 | 1007.1 |
| 20260505161102 | 82 | 130 | 3.0 | 13.0 | 0.00 | 0.00 | 0.00 | 51 | 1007.3 |
| 20260505153023 | 80 | 105 | 4.0 | 12.0 | 0.00 | 0.00 | 0.00 | 55 | 1007.9 |
| 20260505124341 | 66 | 98 | 2.0 | 8.0 | 0.00 | 0.00 | 0.00 | 77 | 1008.1 |
| 20260505123310 | 64 | 119 | 1.0 | 8.0 | 0.00 | 0.00 | 0.00 | 85 | 1008.2 |
| 20260505122247 | 61 | 94 | 0.0 | 0.0 | 0.00 | 0.00 | 0.00 | 90 | 1008.2 |
| 20260505121219 | 60 | 0 | 1.0 | 5.0 | 0.00 | 0.00 | 0.00 | 92 | 1008.3 |
| 20260505120155 | 58 | 108 | 0.0 | 1.0 | 0.00 | 0.00 | 0.00 | 92 | 1008.5 |
| 20260505115127 | 57 | 0 | 0.0 | 3.0 | 0.00 | 0.00 | 0.00 | 92 | 1008.6 |
| 20260505114123 | 57 | 0 | 0.0 | 0.0 | 0.00 | 0.00 | 0.00 | 92 | 1008.4 |
| 20260505110842 | 56 | 110 | 0.0 | 0.0 | 0.00 | 0.00 | 0.00 | 91 | 1008.3 |
| 20260505101804 | 53 | 94 | 0.0 | 0.0 | 0.00 | 0.00 | 0.00 | 88 | 1008.3 |
| 20260505100740 | 53 | 94 | 0.0 | 0.0 | 0.00 | 0.00 | 0.00 | 88 | 1008.1 |
| 20260505095710 | 53 | 94 | 0.0 | 0.0 | 0.00 | 0.00 | 0.00 | 87 | 1008.0 |
| 20260505093620 | 53 | 94 | 0.0 | 0.0 | 0.00 | 0.00 | 0.00 | 87 | 1007.6 |
| 20260505092630 | 53 | 94 | 0.0 | 0.0 | 0.00 | 0.00 | 0.00 | 86 | 1007.5 |
| 20260505091645 | 53 | 94 | 0.0 | 0.0 | 0.00 | 0.00 | 0.00 | 85 | 1007.5 |
| 20260505090636 | 54 | 94 | 0.0 | 0.0 | 0.00 | 0.00 | 0.00 | 85 | 1007.5 |
| 20260505085607 | 54 | 94 | 0.0 | 0.0 | 0.00 | 0.00 | 0.00 | 84 | 1007.5 |
| 20260505081133 | 55 | 94 | 0.0 | 0.0 | 0.00 | 0.00 | 0.00 | 80 | 1007.5 |
| 20260505080130 | 55 | 94 | 0.0 | 0.0 | 0.00 | 0.00 | 0.00 | 80 | 1007.5 |
| 20260505075140 | 55 | 94 | 0.0 | 0.0 | 0.00 | 0.00 | 0.00 | 79 | 1007.6 |
| 20260505074124 | 56 | 94 | 0.0 | 0.0 | 0.00 | 0.00 | 0.00 | 78 | 1007.6 |
| 20260505073125 | 56 | 94 | 0.0 | 0.0 | 0.00 | 0.00 | 0.00 | 77 | 1007.5 |
| 20260505072108 | 56 | 94 | 0.0 | 0.0 | 0.00 | 0.00 | 0.00 | 76 | 1007.6 |
| 20260505071128 | 57 | 94 | 0.0 | 0.0 | 0.00 | 0.00 | 0.00 | 75 | 1007.4 |
| 20260505070124 | 58 | 94 | 0.0 | 0.0 | 0.00 | 0.00 | 0.00 | 75 | 1007.5 |
| 20260505064008 | 59 | 95 | 0.0 | 0.0 | 0.00 | 0.00 | 0.00 | 74 | 1007.3 |
| 20260505062949 | 59 | 94 | 0.0 | 0.0 | 0.00 | 0.00 | 0.00 | 73 | 1007.5 |
| 20260505062010 | 59 | 94 | 0.0 | 0.0 | 0.00 | 0.00 | 0.00 | 72 | 1007.6 |
| 20260505055911 | 60 | 95 | 0.0 | 0.0 | 0.00 | 0.00 | 0.00 | 72 | 1007.6 |
| 20260505054857 | 60 | 96 | 0.0 | 0.0 | 0.00 | 0.00 | 0.00 | 71 | 1007.6 |
| 20260505053906 | 60 | 96 | 0.0 | 3.0 | 0.00 | 0.00 | 0.00 | 71 | 1007.7 |
| 20260505052902 | 61 | 103 | 0.0 | 4.0 | 0.00 | 0.00 | 0.00 | 70 | 1007.8 |
| 20260505051905 | 61 | 0 | 1.0 | 5.0 | 0.00 | 0.00 | 0.00 | 69 | 1007.9 |
| 20260505050922 | 61 | 90 | 0.0 | 5.0 | 0.00 | 0.00 | 0.00 | 68 | 1008.0 |
| 20260505041651 | 62 | 103 | 1.0 | 4.0 | 0.00 | 0.00 | 0.00 | 65 | 1008.0 |
| 20260505035436 | 63 | 118 | 2.0 | 6.0 | 0.00 | 0.00 | 0.00 | 64 | 1008.0 |
| 20260505034407 | 63 | 145 | 1.0 | 5.0 | 0.00 | 0.00 | 0.00 | 64 | 1008.0 |
| 20260505033430 | 63 | 0 | 1.0 | 5.0 | 0.00 | 0.00 | 0.00 | 63 | 1008.1 |
| 20260505032445 | 63 | 119 | 2.0 | 8.0 | 0.00 | 0.00 | 0.00 | 63 | 1008.0 |
| 20260505031503 | 64 | 98 | 0.0 | 5.0 | 0.00 | 0.00 | 0.00 | 62 | 1008.1 |
| 20260505030433 | 64 | 103 | 1.0 | 8.0 | 0.00 | 0.00 | 0.00 | 62 | 1008.1 |
| 20260505024302 | 64 | 101 | 0.0 | 4.0 | 0.00 | 0.00 | 0.00 | 61 | 1008.1 |
| 20260505023244 | 64 | 101 | 0.0 | 5.0 | 0.00 | 0.00 | 0.00 | 59 | 1008.0 |
| 20260505021115 | 65 | 0 | 0.0 | 1.0 | 0.00 | 0.00 | 0.00 | 55 | 1008.2 |
| 20260505015051 | 67 | 0 | 0.0 | 0.0 | 0.00 | 0.00 | 0.00 | 53 | 1008.0 |
| 20260505014059 | 67 | 0 | 0.0 | 5.0 | 0.00 | 0.00 | 0.00 | 53 | 1008.0 |
| 20260505011855 | 68 | 0 | 2.0 | 6.0 | 0.00 | 0.00 | 0.00 | 51 | 1007.7 |
| 20260505010852 | 68 | 0 | 1.0 | 5.0 | 0.00 | 0.00 | 0.00 | 51 | 1007.6 |
| 20260505005902 | 68 | 0 | 1.0 | 6.0 | 0.00 | 0.00 | 0.00 | 50 | 1007.5 |
| 20260505004853 | 69 | 0 | 2.0 | 10.0 | 0.00 | 0.00 | 0.00 | 50 | 1007.3 |
| 20260505002702 | 69 | 0 | 3.0 | 9.0 | 0.00 | 0.00 | 0.00 | 49 | 1007.0 |
| 20260505001703 | 70 | 0 | 2.0 | 8.0 | 0.00 | 0.00 | 0.00 | 49 | 1006.9 |
| 20260505000719 | 70 | 0 | 2.0 | 13.0 | 0.00 | 0.00 | 0.00 | 48 | 1006.8 |
| 20260504235713 | 70 | 0 | 5.0 | 13.0 | 0.00 | 0.00 | 0.00 | 47 | 1006.5 |
| 20260504234722 | 71 | 0 | 3.0 | 11.0 | 0.00 | 0.00 | 0.00 | 47 | 1006.4 |
| 20260504233726 | 71 | 96 | 3.0 | 12.0 | 0.00 | 0.00 | 0.00 | 47 | 1006.4 |
| 20260504232729 | 72 | 140 | 4.0 | 12.0 | 0.00 | 0.00 | 0.00 | 46 | 1006.2 |
| 20260504231751 | 72 | 119 | 5.0 | 13.0 | 0.00 | 0.00 | 0.00 | 46 | 1006.1 |
| 20260504230758 | 72 | 86 | 3.0 | 13.0 | 0.00 | 0.00 | 0.00 | 45 | 1005.9 |
| 20260504225800 | 72 | 0 | 5.0 | 12.0 | 0.00 | 0.00 | 0.00 | 45 | 1005.9 |
| 20260504224804 | 73 | 113 | 4.0 | 11.0 | 0.00 | 0.00 | 0.00 | 45 | 1005.9 |
| 20260504223730 | 73 | 95 | 4.0 | 11.0 | 0.00 | 0.00 | 0.00 | 45 | 1005.9 |
| 20260504215348 | 74 | 131 | 4.0 | 11.0 | 0.00 | 0.00 | 0.00 | 43 | 1006.3 |
| 20260504213144 | 74 | 98 | 4.0 | 12.0 | 0.00 | 0.00 | 0.00 | 43 | 1006.3 |
| 20260504212141 | 74 | 78 | 5.0 | 11.0 | 0.00 | 0.00 | 0.00 | 42 | 1006.4 |